This is the latest recevied weather packets stored in our database for station/object 4S6DRJ-13. If no packets are shown the sender has not sent any weather packets the latest 10 day(s).
| Time | Temp. | Humidity | Pressure | Rain* | Wind** | Luminosity | Snow |
|---|---|---|---|---|---|---|---|
| 1788402042 | 27.78° C | 84% | 1010.2 hPa | 0 mm | 0 m/s | 200 W/m² | - |
| 1788401981 | 27.78° C | 84% | 1010 hPa | 0 mm | 0.89 m/s, 216° | 189 W/m² | - |
| 1788401919 | 27.78° C | 83% | 1010.2 hPa | 0 mm | 0.89 m/s, 252° | 180 W/m² | - |
| 1788401858 | 27.78° C | 83% | 1010.2 hPa | 0 mm | 0.45 m/s, 267° | 170 W/m² | - |
| 1788401797 | 27.78° C | 83% | 1010.1 hPa | 0 mm | 0.45 m/s, 212° | 162 W/m² | - |
| 1788401737 | 27.78° C | 83% | 1010 hPa | 0 mm | 0.89 m/s, 245° | 154 W/m² | - |
| 1788401675 | 27.78° C | 83% | 1010.1 hPa | 0 mm | 0.45 m/s, 217° | 150 W/m² | - |
| 1788401615 | 27.78° C | 82% | 1009.8 hPa | 0 mm | 2.24 m/s, 244° | 146 W/m² | - |
| 1788401553 | 27.78° C | 82% | 1010.2 hPa | 0 mm | 2.24 m/s, 254° | 142 W/m² | - |
| 1788401493 | 27.78° C | 82% | 1010 hPa | 0 mm | 1.34 m/s, 276° | 137 W/m² | - |
| 1788401431 | 27.78° C | 82% | 1010.3 hPa | 0 mm | 0.89 m/s, 155° | 129 W/m² | - |
| 1788401370 | 27.78° C | 82% | 1009.9 hPa | 0 mm | 1.34 m/s, 222° | 127 W/m² | - |
| 1788401309 | 27.78° C | 83% | 1010.1 hPa | 0 mm | 0.45 m/s, 195° | 142 W/m² | - |
| 1788401248 | 27.22° C | 83% | 1009.9 hPa | 0 mm | 0 m/s | 165 W/m² | - |
| 1788401187 | 27.22° C | 83% | 1010 hPa | 0 mm | 0.45 m/s, 205° | 188 W/m² | - |
| 1788401126 | 27.22° C | 83% | 1010.1 hPa | 0 mm | 0.45 m/s, 211° | 204 W/m² | - |
| 1788401066 | 27.22° C | 84% | 1010 hPa | 0 mm | 0.89 m/s, 189° | 248 W/m² | - |
| 1788401004 | 27.22° C | 84% | 1010 hPa | 0 mm | 0.89 m/s, 200° | 304 W/m² | - |
| 1788400943 | 26.67° C | 85% | 1010 hPa | 0 mm | 0 m/s | 296 W/m² | - |
| 1788400883 | 26.67° C | 85% | 1010.1 hPa | 0 mm | 0.89 m/s, 250° | 365 W/m² | - |
| 1788400821 | 26.67° C | 85% | 1009.9 hPa | 0 mm | 0.45 m/s, 218° | 331 W/m² | - |
| 1788400761 | 26.67° C | 85% | 1009.9 hPa | 0 mm | 0 m/s | 269 W/m² | - |
| 1788400700 | 26.67° C | 85% | 1010.1 hPa | 0 mm | 0 m/s | 242 W/m² | - |
| 1788400639 | 26.67° C | 85% | 1009.9 hPa | 0 mm | 0.89 m/s, 222° | 216 W/m² | - |
| 1788400577 | 26.67° C | 85% | 1009.8 hPa | 0 mm | 0.45 m/s, 224° | 199 W/m² | - |
* Rain latest hour (hover to see other rain measurements)
** Current wind speed in m/s (hover to see current wind gust speed)